Torna al catalogo

STARLINK-37892

AttivoComunicazioniSSO
NORAD 69485·PAYLOAD·🇺🇸 United States

Lanciato Jun 11, 2026 da Vandenberg Space Force Base

Loading…

Prossimi Passaggi (prossime 24 ore)

TLE

AggiornatoSource: CelesTrak SupGP

Epoca: Sep 14, 2026, 22:38 UTC

1 69485C 26131H   26257.94354167  .00038814  00000+0  12050-2 0  2576
2 69485  97.2838 278.8642 0001273  94.5184 289.0822 15.33416203    12

Traccia STARLINK-37892 in tempo reale con AllMySat

Download on the App Store